TimeCDT,TemperatureF,Dew PointF,Humidity,Sea Level PressureIn,VisibilityMPH,Wind Direction,Wind SpeedMPH,Gust SpeedMPH,PrecipitationIn,Events,Conditions,WindDirDegrees,DateUTC
12:54 AM,64.9,54.0,68,30.17,10.0,SSE,3.5,-,N/A,,Clear,160,2013-07-02 05:54:00
1:54 AM,64.0,53.1,67,30.16,10.0,Calm,Calm,-,N/A,,Clear,0,2013-07-02 06:54:00
2:54 AM,64.0,53.1,67,30.16,10.0,Calm,Calm,-,N/A,,Scattered Clouds,0,2013-07-02 07:54:00
3:54 AM,62.1,53.1,72,30.16,10.0,SE,3.5,-,N/A,,Clear,130,2013-07-02 08:54:00
4:54 AM,63.0,53.1,70,30.15,10.0,Calm,Calm,-,N/A,,Clear,0,2013-07-02 09:54:00
5:54 AM,60.1,53.1,78,30.15,10.0,SSE,3.5,-,N/A,,Clear,150,2013-07-02 10:54:00
6:54 AM,61.0,55.0,81,30.15,10.0,SSE,4.6,-,N/A,,Clear,160,2013-07-02 11:54:00
7:54 AM,66.0,55.9,70,30.15,8.0,SE,3.5,-,N/A,,Clear,130,2013-07-02 12:54:00
9:54 AM,75.0,54.0,48,30.14,9.0,SW,5.8,-,N/A,,Clear,230,2013-07-02 14:54:00
10:54 AM,78.1,52.0,40,30.14,8.0,SW,4.6,-,N/A,,Clear,220,2013-07-02 15:54:00
11:54 AM,81.0,51.1,35,30.13,9.0,SW,6.9,-,N/A,,Clear,230,2013-07-02 16:54:00
12:54 PM,82.0,48.0,30,30.13,10.0,Calm,Calm,-,N/A,,Clear,0,2013-07-02 17:54:00
1:02 PM,82.4,48.2,30,30.14,10.0,SSW,8.1,-,N/A,,Partly Cloudy,200,2013-07-02 18:02:00
1:54 PM,82.9,48.9,31,30.12,10.0,SSW,6.9,-,N/A,,Scattered Clouds,210,2013-07-02 18:54:00
2:54 PM,82.9,46.9,28,30.10,10.0,WSW,5.8,-,N/A,,Partly Cloudy,240,2013-07-02 19:54:00
3:54 PM,84.0,48.0,28,30.09,10.0,Variable,6.9,-,N/A,,Partly Cloudy,0,2013-07-02 20:54:00
4:54 PM,84.9,51.1,31,30.08,10.0,South,10.4,-,N/A,,Clear,180,2013-07-02 21:54:00
5:54 PM,84.0,48.9,29,30.07,10.0,SE,8.1,-,N/A,,Clear,140,2013-07-02 22:54:00
6:54 PM,82.9,48.9,31,30.05,10.0,SSE,9.2,-,N/A,,Clear,150,2013-07-02 23:54:00
7:54 PM,81.0,51.1,35,30.04,10.0,South,5.8,-,N/A,,Clear,170,2013-07-03 00:54:00
8:54 PM,77.0,52.0,42,30.04,10.0,SSE,5.8,-,N/A,,Clear,160,2013-07-03 01:54:00
9:54 PM,73.0,52.0,48,30.03,10.0,SSE,3.5,-,N/A,,Clear,150,2013-07-03 02:54:00
10:54 PM,68.0,53.1,59,30.02,10.0,SE,4.6,-,N/A,,Clear,130,2013-07-03 03:54:00
11:54 PM,66.9,54.0,63,30.01,10.0,SE,4.6,-,N/A,,Clear,140,2013-07-03 04:54:00